Location: Stoke Bliss
(52.2667°N, 2.5167°W)
Time: 21:32:52
(UTC+00:00)

Cosmos 1821 Rocket - Pass Details

Date: 03 March 2021
Orbit: 945 x 1005 km, 82.9° (Epoch: 16 April)

Event Time Altitude Azimuth Distance (km) Brightness Sun altitude
Exits shadow 20:41:58 62° 93° (E) 1,082 3.9 -26.0°
Drops below altitude 10° 20:48:01 10° 15° (NNE) 2,703 6.4 -26.8°
Sets 20:50:32 0° 13° (NNE) 3,646 7.2 -27.2°
